| time (UTC) | temp F | wind direction | speed knots | gust knots | rain 1hr in | rain 24hr in | rain mn in | humidity % | barometer mb |
| 20260504204919 | 54 | 0.0 | 0.0 | 0.00 | 0.00 | 0.00 | 10 | 1013.1 | |
| 20260504203919 | 54 | 0.0 | 0.0 | 0.00 | 0.00 | 0.00 | 10 | 1013.2 | |
| 20260504202919 | 54 | 0.0 | 0.0 | 0.00 | 0.00 | 0.00 | 10 | 1013.1 | |
| 20260504201919 | 54 | 0.0 | 0.0 | 0.00 | 0.00 | 0.00 | 10 | 1013.3 | |
| 20260504200919 | 55 | 0.0 | 0.0 | 0.00 | 0.00 | 0.00 | 10 | 1013.5 | |
| 20260504195919 | 56 | 0.0 | 0.0 | 0.00 | 0.00 | 0.00 | 10 | 1013.4 | |
| 20260504194919 | 57 | 0.0 | 0.0 | 0.00 | 0.00 | 0.00 | 10 | 1012.9 | |
| 20260504193919 | 58 | 0.0 | 0.0 | 0.00 | 0.00 | 0.00 | 10 | 1012.5 | |
| 20260504192919 | 59 | 0.0 | 0.0 | 0.00 | 0.00 | 0.00 | 10 | 1012.1 | |
| 20260504191919 | 60 | 0.0 | 0.0 | 0.00 | 0.00 | 0.00 | 10 | 1012.2 | |
| 20260504190919 | 61 | 0.0 | 0.0 | 0.00 | 0.00 | 0.00 | 10 | 1011.8 | |
| 20260504185919 | 60 | 0.0 | 0.0 | 0.00 | 0.00 | 0.00 | 10 | 1011.7 | |
| 20260504184919 | 61 | 0.0 | 0.0 | 0.00 | 0.00 | 0.00 | 10 | 1011.6 | |
| 20260504183919 | 61 | 0.0 | 0.0 | 0.00 | 0.00 | 0.00 | 10 | 1011.4 | |
| 20260504182919 | 62 | 0.0 | 0.0 | 0.00 | 0.00 | 0.00 | 10 | 1011.3 | |
| 20260504181924 | 62 | 0.0 | 0.0 | 0.00 | 0.00 | 0.00 | 10 | 1011.1 | |
| 20260504180919 | 62 | 0.0 | 0.0 | 0.00 | 0.00 | 0.00 | 10 | 1010.7 | |
| 20260504175919 | 64 | 0.0 | 0.0 | 0.00 | 0.00 | 0.00 | 10 | 1010.4 | |
| 20260504174924 | 64 | 0.0 | 0.0 | 0.00 | 0.00 | 0.00 | 10 | 1010.3 | |
| 20260504173919 | 64 | 0.0 | 0.0 | 0.00 | 0.00 | 0.00 | 10 | 1010.5 | |
| 20260504172919 | 63 | 0.0 | 0.0 | 0.00 | 0.00 | 0.00 | 10 | 1010.7 | |
| 20260504171919 | 63 | 0.0 | 0.0 | 0.00 | 0.00 | 0.00 | 10 | 1010.8 | |
| 20260504170919 | 63 | 0.0 | 0.0 | 0.00 | 0.00 | 0.00 | 10 | 1010.7 | |
| 20260504150919 | 69 | 0.0 | 0.0 | 0.00 | 0.00 | 0.00 | 10 | 1010.8 | |
| 20260504140919 | 65 | 0.0 | 0.0 | 0.00 | 0.00 | 0.00 | 10 | 1011.6 | |
| 20260504081920 | 67 | 0.0 | 0.0 | 0.00 | 0.00 | 0.00 | 94 | 1012.5 | |
| 20260504080919 | 67 | 0.0 | 0.0 | 0.00 | 0.00 | 0.00 | 97 | 1012.6 | |
| 20260504045920 | 55 | 0.0 | 0.0 | 0.00 | 0.00 | 0.00 | 10 | 1014.3 | |
| 20260504044919 | 55 | 0.0 | 0.0 | 0.00 | 0.00 | 0.00 | 10 | 1014.2 | |
| 20260504043919 | 55 | 0.0 | 0.0 | 0.00 | 0.00 | 0.00 | 10 | 1014.3 | |
| 20260504042920 | 55 | 0.0 | 0.0 | 0.00 | 0.00 | 0.00 | 10 | 1014.3 | |
| 20260504041920 | 55 | 0.0 | 0.0 | 0.00 | 0.00 | 0.00 | 10 | 1014.4 | |
| 20260504040920 | 54 | 0.0 | 0.0 | 0.00 | 0.00 | 0.00 | 10 | 1014.3 | |
| 20260504035920 | 55 | 0.0 | 0.0 | 0.00 | 0.00 | 0.00 | 10 | 1014.3 | |
| 20260504034925 | 55 | 0.0 | 0.0 | 0.00 | 0.00 | 0.00 | 10 | 1014.2 | |
| 20260504033919 | 55 | 0.0 | 0.0 | 0.00 | 0.00 | 0.00 | 10 | 1014.3 | |
| 20260504032920 | 55 | 0.0 | 0.0 | 0.00 | 0.00 | 0.00 | 10 | 1014.2 | |
| 20260504031919 | 56 | 0.0 | 0.0 | 0.00 | 0.00 | 0.00 | 10 | 1014.2 | |
| 20260504030925 | 56 | 0.0 | 0.0 | 0.00 | 0.00 | 0.00 | 10 | 1014.2 | |
| 20260504025919 | 56 | 0.0 | 0.0 | 0.00 | 0.00 | 0.00 | 10 | 1014.3 | |
| 20260504024920 | 55 | 0.0 | 0.0 | 0.00 | 0.00 | 0.00 | 10 | 1014.3 | |
| 20260504023919 | 56 | 0.0 | 0.0 | 0.00 | 0.00 | 0.00 | 10 | 1014.3 | |
| 20260504022920 | 56 | 0.0 | 0.0 | 0.00 | 0.00 | 0.00 | 10 | 1014.2 | |
| 20260504021920 | 56 | 0.0 | 0.0 | 0.00 | 0.00 | 0.00 | 10 | 1014.2 | |
| 20260504020919 | 56 | 0.0 | 0.0 | 0.00 | 0.00 | 0.00 | 10 | 1014.2 | |
| 20260504015919 | 56 | 0.0 | 0.0 | 0.00 | 0.00 | 0.00 | 10 | 1014.5 | |
| 20260504014919 | 56 | 0.0 | 0.0 | 0.00 | 0.00 | 0.00 | 10 | 1014.6 | |
| 20260504013930 | 56 | 0.0 | 0.0 | 0.00 | 0.00 | 0.00 | 10 | 1014.6 | |
| 20260504012919 | 56 | 0.0 | 0.0 | 0.00 | 0.00 | 0.00 | 10 | 1014.6 | |
| 20260504011919 | 56 | 0.0 | 0.0 | 0.00 | 0.00 | 0.00 | 10 | 1014.7 | |
| 20260504010919 | 56 | 0.0 | 0.0 | 0.00 | 0.00 | 0.00 | 10 | 1014.8 | |
| 20260504005919 | 56 | 0.0 | 0.0 | 0.00 | 0.00 | 0.00 | 10 | 1014.8 | |
| 20260504004925 | 56 | 0.0 | 0.0 | 0.00 | 0.00 | 0.00 | 10 | 1014.9 | |
| 20260504003920 | 56 | 0.0 | 0.0 | 0.00 | 0.00 | 0.00 | 10 | 1014.9 | |
| 20260504002926 | 56 | 0.0 | 0.0 | 0.00 | 0.00 | 0.00 | 10 | 1015.0 | |
| 20260504001920 | 56 | 0.0 | 0.0 | 0.00 | 0.00 | 0.00 | 10 | 1015.0 | |
| 20260504000920 | 56 | 0.0 | 0.0 | 0.00 | 0.00 | 0.00 | 10 | 1015.2 | |
| 20260503235920 | 56 | 0.0 | 0.0 | 0.00 | 0.00 | 0.00 | 10 | 1015.2 | |
| 20260503234920 | 57 | 0.0 | 0.0 | 0.00 | 0.00 | 0.00 | 10 | 1015.0 | |
| 20260503233919 | 57 | 0.0 | 0.0 | 0.00 | 0.00 | 0.00 | 10 | 1015.0 | |
| 20260503232930 | 57 | 0.0 | 0.0 | 0.00 | 0.00 | 0.00 | 10 | 1015.1 | |
| 20260503231920 | 57 | 0.0 | 0.0 | 0.00 | 0.00 | 0.00 | 10 | 1015.2 | |
| 20260503230920 | 57 | 0.0 | 0.0 | 0.00 | 0.00 | 0.00 | 10 | 1015.2 | |
| 20260503225920 | 57 | 0.0 | 0.0 | 0.00 | 0.00 | 0.00 | 10 | 1015.2 | |
| 20260503224919 | 57 | 0.0 | 0.0 | 0.00 | 0.00 | 0.00 | 10 | 1015.2 | |
| 20260503223919 | 57 | 0.0 | 0.0 | 0.00 | 0.00 | 0.00 | 10 | 1015.1 | |
| 20260503222920 | 57 | 0.0 | 0.0 | 0.00 | 0.00 | 0.00 | 10 | 1015.2 | |
| 20260503221925 | 57 | 0.0 | 0.0 | 0.00 | 0.00 | 0.00 | 10 | 1015.1 | |
| 20260503220920 | 57 | 0.0 | 0.0 | 0.00 | 0.00 | 0.00 | 10 | 1015.2 | |
| 20260503215925 | 58 | 0.0 | 0.0 | 0.00 | 0.00 | 0.00 | 10 | 1015.1 | |
| 20260503214920 | 58 | 0.0 | 0.0 | 0.00 | 0.00 | 0.00 | 10 | 1014.9 | |
| 20260503213920 | 58 | 0.0 | 0.0 | 0.00 | 0.00 | 0.00 | 10 | 1015.1 | |
| 20260503212920 | 59 | 0.0 | 0.0 | 0.00 | 0.00 | 0.00 | 10 | 1014.9 | |
| 20260503211919 | 59 | 0.0 | 0.0 | 0.00 | 0.00 | 0.00 | 10 | 1015.2 | |
| 20260503210919 | 59 | 0.0 | 0.0 | 0.00 | 0.00 | 0.00 | 10 | 1015.1 | |
| 20260503205919 | 59 | 0.0 | 0.0 | 0.00 | 0.00 | 0.00 | 10 | 1015.3 |